User: anonymous   Login
Location: Unspecified
(0.0000°N, 0.0000°E)
Time: 19:50:12
(UTC+00:00)
Language:

USA 236 - Orbit

View from above orbital plane
View from above orbital plane
View from above satellite
View from above satellite

Ground track
Ground track

The orbit data is extracted from the following two-line orbital elements,

1 38466U 12033A   19028.13742259 0.00000000  00000-0  00000-0 0    02
2 38466   1.5655 152.6082 0003453 140.5774 219.4640  1.00270000    04
Epoch (UTC): 28 January 2019 03:17:53
Eccentricity: 0.0003453
inclination: 1.5655°
perigee height: 35772 km
apogee height: 35801 km
right ascension of ascending node: 152.6082°
argument of perigee: 140.5774°
revolutions per day: 1.00270000
mean anomaly at epoch: 219.4640°
orbit number at epoch: 0

The dashed part of the orbit path shows where the satellite is in the earth's shadow,  

DLR